Valley City, ND

6:30 PM CDT on October 21, 2019 (GMT -0500)
Valley City

Weather History for KBAC - September, 2019

Change the Weather History Date:

Saturday, September 21, 2019

  Actual Average (WUND) Record (WUND)
Temperature  
Mean Temperature 63 °F -  
Max Temperature 73 °F - - (-1)
Min Temperature 53 °F - - (-1)
Degree Days  
Heating Degree Days 2    
Growing Degree Days 13 (Base 50)    
Moisture  
Dew Point 61 °F    
Average Humidity 90    
Maximum Humidity 100    
Minimum Humidity 68    
Precipitation  
Precipitation 0.00 in - - ()
Sea Level Pressure  
Sea Level Pressure 29.70 in    
Wind  
Wind Speed 12 mph (West)    
Max Wind Speed 23 mph    
Max Gust Speed 31 mph    
Visibility 9 miles    
Events Rain , Thunderstorm    
Averages and records for this station are not official NWS values.
T = Trace of Precipitation, MM = Missing Value Source: NWS Daily Summary

Daily Weather History Graph

Daily Weather History Graph

Search for Another Location

Airport or City:

Astronomy

Sep. 21, 2019 Rise Set
Actual Time 7:17 AM CDT 7:32 PM CDT
Civil Twilight 6:46 AM CDT 8:02 PM CDT
Nautical Twilight 6:11 AM CDT 8:38 PM CDT
Astronomical Twilight 5:34 AM CDT 9:15 PM CDT
Moon 11:45 PM CDT 2:49 PM CDT
Length of Visible Light 13h 15m
Length of Day
12h 14m
Waning Gibbous, 54% of the Moon is Illuminated
Sep 21
Waning Gibbous
Sep 21
Last Quarter
Sep 28
New
Oct 5
First Quarter
Oct 13
Full

Hourly Weather History & Observations

Time (CDT) Temp. Dew Point Humidity Pressure Visibility Wind Dir Wind Speed Gust Speed Precip Events Conditions
12:15 AM 73.4 °F 71.6 °F 94% 29.71 in 10.0 mi South 12.7 mph - N/A   Clear
12:35 AM 73.4 °F 71.6 °F 94% 29.73 in 10.0 mi WNW 12.7 mph 21.9 mph N/A   Scattered Clouds
12:55 AM 68.0 °F 66.2 °F 94% 29.74 in 10.0 mi North 10.4 mph 24.2 mph N/A   Overcast
1:15 AM 64.4 °F 62.6 °F 94% 29.74 in 10.0 mi North 15.0 mph - N/A Thunderstorm Overcast
1:35 AM 62.6 °F 62.6 °F 100% 29.75 in 6.0 mi NNE 4.6 mph 13.8 mph N/A Rain Light Rain
1:55 AM 62.6 °F 62.6 °F 100% 29.72 in 5.0 mi NNE 13.8 mph - N/A Rain Light Rain
2:15 AM 60.8 °F 60.8 °F 100% 29.72 in 4.0 mi East 8.1 mph 15.0 mph N/A Rain Light Rain
2:55 AM 60.8 °F 60.8 °F 100% 29.70 in 4.0 mi ENE 12.7 mph - N/A Rain , Thunderstorm Rain
3:15 AM 60.8 °F 60.8 °F 100% 29.67 in 2.5 mi East 16.1 mph - N/A Rain , Thunderstorm Rain
3:35 AM 60.8 °F 60.8 °F 100% 29.68 in 1.8 mi East 15.0 mph 20.7 mph N/A Rain , Thunderstorm Rain
4:15 AM 60.8 °F 60.8 °F 100% 29.68 in 2.0 mi NE 9.2 mph - N/A Rain , Thunderstorm Rain
4:55 AM 60.8 °F 60.8 °F 100% 29.68 in 3.0 mi ENE 9.2 mph - N/A Rain Light Rain
5:15 AM 60.8 °F 60.8 °F 100% 29.73 in 1.0 mi South 4.6 mph - N/A Rain , Thunderstorm Rain
5:35 AM 60.8 °F 60.8 °F 100% 29.69 in 3.0 mi NE 4.6 mph - N/A Rain , Thunderstorm Light Thunderstorms and Rain
5:55 AM 60.8 °F 60.8 °F 100% 29.69 in 5.0 mi East 8.1 mph - N/A   Light Drizzle
6:15 AM 60.8 °F 60.8 °F 100% 29.62 in 5.0 mi East 15.0 mph - N/A Rain Light Rain
6:35 AM 60.8 °F 60.8 °F 100% 29.60 in 9.0 mi East 11.5 mph 19.6 mph N/A   Scattered Clouds
6:55 AM 60.8 °F 60.8 °F 100% 29.60 in 10.0 mi Calm Calm - N/A   Clear
7:15 AM 60.8 °F 60.8 °F 100% 29.61 in 10.0 mi ESE 4.6 mph - N/A   Clear
7:35 AM 59.0 °F 59.0 °F 100% 29.59 in 10.0 mi SE 4.6 mph - N/A   Clear
7:55 AM 60.8 °F 60.8 °F 100% 29.61 in 10.0 mi South 6.9 mph - N/A   Clear
8:15 AM 60.8 °F 60.8 °F 100% 29.61 in 10.0 mi SSW 4.6 mph - N/A   Clear
8:35 AM 60.8 °F 60.8 °F 100% 29.61 in 10.0 mi South 6.9 mph - N/A   Clear
8:55 AM 62.6 °F 62.6 °F 100% 29.63 in 10.0 mi West 8.1 mph - N/A   Clear
9:15 AM 62.6 °F 62.6 °F 100% 29.65 in 10.0 mi West 12.7 mph - N/A   Mostly Cloudy
9:35 AM 62.6 °F 62.6 °F 100% 29.66 in 10.0 mi WSW 12.7 mph - N/A   Mostly Cloudy
9:55 AM 64.4 °F 64.4 °F 100% 29.65 in 10.0 mi SSW 15.0 mph - N/A   Scattered Clouds
10:15 AM 64.4 °F 64.4 °F 100% 29.65 in 10.0 mi SSW 16.1 mph 21.9 mph N/A   Mostly Cloudy
10:35 AM 66.2 °F 66.2 °F 100% 29.65 in 10.0 mi SSW 13.8 mph 21.9 mph N/A   Overcast
10:55 AM 66.2 °F 66.2 °F 100% 29.65 in 10.0 mi SW 16.1 mph 24.2 mph N/A   Mostly Cloudy
11:15 AM 68.0 °F 68.0 °F 100% 29.65 in 10.0 mi SSW 18.4 mph - N/A   Scattered Clouds
11:35 AM 69.8 °F 68.0 °F 94% 29.65 in 10.0 mi SW 13.8 mph 19.6 mph N/A   Partly Cloudy
11:55 AM 69.8 °F 68.0 °F 94% 29.64 in 10.0 mi SW 13.8 mph 19.6 mph N/A   Scattered Clouds
12:15 PM 71.6 °F 66.2 °F 83% 29.65 in 10.0 mi WSW 16.1 mph - N/A   Mostly Cloudy
12:35 PM 71.6 °F 64.4 °F 78% 29.64 in 10.0 mi SW 19.6 mph - N/A   Overcast
12:55 PM 71.6 °F 64.4 °F 78% 29.64 in 10.0 mi SW 19.6 mph - N/A   Overcast
1:15 PM 71.6 °F 64.4 °F 78% 29.65 in 10.0 mi SW 18.4 mph - N/A   Overcast
1:35 PM 71.6 °F 64.4 °F 78% 29.65 in 10.0 mi WSW 15.0 mph - N/A   Overcast
1:55 PM 71.6 °F 64.4 °F 78% 29.66 in 10.0 mi WSW 17.3 mph - N/A   Overcast
2:15 PM 73.4 °F 66.2 °F 78% 29.65 in 10.0 mi WSW 16.1 mph - N/A   Mostly Cloudy
2:35 PM 73.4 °F 64.4 °F 73% 29.66 in 10.0 mi West 20.7 mph 26.5 mph N/A   Scattered Clouds
2:55 PM 73.4 °F 64.4 °F 73% 29.66 in 10.0 mi WSW 17.3 mph 24.2 mph N/A   Partly Cloudy
3:15 PM 73.4 °F 62.6 °F 69% 29.66 in 10.0 mi West 16.1 mph 26.5 mph N/A   Clear
3:35 PM 73.4 °F 64.4 °F 73% 29.66 in 10.0 mi West 16.1 mph 23.0 mph N/A   Clear
3:55 PM 71.6 °F 62.6 °F 73% 29.68 in 10.0 mi NNW 23.0 mph 31.1 mph N/A   Scattered Clouds
4:15 PM 68.0 °F 60.8 °F 78% 29.68 in 10.0 mi NW 18.4 mph 26.5 mph N/A   Light Drizzle
4:35 PM 66.2 °F 60.8 °F 83% 29.70 in 10.0 mi NW 19.6 mph 27.6 mph N/A   Scattered Clouds
4:55 PM 68.0 °F 59.0 °F 73% 29.70 in 10.0 mi NW 15.0 mph 20.7 mph N/A   Scattered Clouds
5:15 PM 68.0 °F 59.0 °F 73% 29.70 in 10.0 mi WNW 16.1 mph - N/A   Partly Cloudy
5:35 PM 68.0 °F 57.2 °F 68% 29.71 in 10.0 mi NW 15.0 mph - N/A   Clear
5:55 PM 66.2 °F 55.4 °F 68% 29.72 in 10.0 mi NW 11.5 mph 18.4 mph N/A   Clear
6:15 PM 66.2 °F 55.4 °F 68% 29.72 in 10.0 mi NW 11.5 mph - N/A   Clear
6:35 PM 66.2 °F 55.4 °F 68% 29.73 in 10.0 mi WNW 8.1 mph - N/A   Clear
6:55 PM 64.4 °F 55.4 °F 73% 29.74 in 10.0 mi WNW 10.4 mph - N/A   Clear
7:15 PM 62.6 °F 55.4 °F 77% 29.75 in 10.0 mi WNW 8.1 mph - N/A   Scattered Clouds
7:35 PM 62.6 °F 57.2 °F 82% 29.76 in 10.0 mi WNW 6.9 mph - N/A   Overcast
7:55 PM 62.6 °F 57.2 °F 82% 29.76 in 10.0 mi West 8.1 mph - N/A   Overcast
8:15 PM 62.6 °F 55.4 °F 77% 29.77 in 10.0 mi WNW 9.2 mph - N/A   Mostly Cloudy
8:35 PM 60.8 °F 57.2 °F 88% 29.78 in 10.0 mi West 9.2 mph - N/A   Scattered Clouds
9:15 PM 60.8 °F 55.4 °F 82% 29.79 in 10.0 mi West 13.8 mph 20.7 mph N/A   Clear
9:35 PM 59.0 °F 55.4 °F 88% 29.80 in 10.0 mi WNW 9.2 mph 15.0 mph N/A   Clear
9:55 PM 57.2 °F 55.4 °F 94% 29.81 in 10.0 mi WNW 16.1 mph - N/A   Clear
10:15 PM 57.2 °F 55.4 °F 94% 29.82 in 10.0 mi WNW 15.0 mph - N/A   Clear
10:35 PM 55.4 °F 55.4 °F 100% 29.83 in 10.0 mi WNW 13.8 mph - N/A   Clear
10:55 PM 55.4 °F 55.4 °F 100% 29.84 in 10.0 mi WNW 9.2 mph - N/A   Partly Cloudy
11:15 PM 55.4 °F 55.4 °F 100% 29.84 in 10.0 mi West 10.4 mph - N/A   Clear
11:35 PM 53.6 °F 53.6 °F 100% 29.85 in 10.0 mi West 11.5 mph - N/A   Clear
11:55 PM 53.6 °F 53.6 °F 100% 29.85 in 10.0 mi West 10.4 mph - N/A   Clear